Time,TemperatureF,DewpointF,PressureIn,WindDirection,WindDirectionDegrees,WindSpeedMPH,WindSpeedGustMPH,Humidity,HourlyPrecipIn,Conditions,Clouds,dailyrainin,SoftwareType,DateUTC
2013-10-18 00:05:00,49.0,49.0,29.92,North,350,5.0,-999.0,98,-99.99,,,0.00,weatherlink.com 1.10,2013-10-18 04:05:00,
2013-10-18 00:20:00,48.8,48.0,29.92,NNW,331,10.0,-999.0,98,-99.99,,,0.00,weatherlink.com 1.10,2013-10-18 04:20:00,
2013-10-18 00:35:00,48.7,48.0,29.93,WNW,294,10.0,-999.0,97,-99.99,,,0.00,weatherlink.com 1.10,2013-10-18 04:35:00,
2013-10-18 00:50:00,48.7,48.0,29.92,WNW,298,8.0,-999.0,96,-99.99,,,0.00,weatherlink.com 1.10,2013-10-18 04:50:00,
2013-10-18 01:05:00,48.3,48.0,29.91,West,281,6.0,-999.0,97,-99.99,,,0.00,weatherlink.com 1.10,2013-10-18 05:05:00,
2013-10-18 01:20:00,47.9,47.0,29.91,NNE,20,0.0,-999.0,97,-99.99,,,0.00,weatherlink.com 1.10,2013-10-18 05:20:00,
2013-10-18 01:35:00,47.7,47.0,29.92,NW,323,7.0,-999.0,97,-99.99,,,0.00,weatherlink.com 1.10,2013-10-18 05:35:00,
2013-10-18 01:50:00,47.4,47.0,29.92,North,350,0.0,-999.0,97,-99.99,,,0.00,weatherlink.com 1.10,2013-10-18 05:50:00,
2013-10-18 02:05:00,47.1,46.0,29.92,NW,325,4.0,-999.0,97,-99.99,,,0.00,weatherlink.com 1.10,2013-10-18 06:05:00,
2013-10-18 02:20:00,46.8,46.0,29.93,NNW,338,6.0,-999.0,97,-99.99,,,0.00,weatherlink.com 1.10,2013-10-18 06:20:00,
2013-10-18 02:35:00,46.7,46.0,29.92,NNE,16,9.0,-999.0,96,-99.99,,,0.00,weatherlink.com 1.10,2013-10-18 06:35:00,
2013-10-18 02:50:00,46.5,46.0,29.92,NNW,332,21.0,-999.0,96,-99.99,,,0.00,weatherlink.com 1.10,2013-10-18 06:50:00,
2013-10-18 03:05:00,46.6,45.0,29.93,North,350,8.0,-999.0,94,-99.99,,,0.00,weatherlink.com 1.10,2013-10-18 07:05:00,
2013-10-18 03:20:00,46.2,45.0,29.92,NW,312,10.0,-999.0,94,-99.99,,,0.00,weatherlink.com 1.10,2013-10-18 07:20:00,
2013-10-18 03:35:00,45.8,44.0,29.92,North,5,7.0,-999.0,94,-99.99,,,0.00,weatherlink.com 1.10,2013-10-18 07:35:00,
2013-10-18 03:50:00,45.5,44.0,29.92,NW,318,17.0,-999.0,95,-99.99,,,0.00,weatherlink.com 1.10,2013-10-18 07:50:00,
2013-10-18 04:05:00,45.2,44.0,29.92,NNE,12,8.0,-999.0,96,-99.99,,,0.00,weatherlink.com 1.10,2013-10-18 08:05:00,
2013-10-18 04:20:00,44.9,44.0,29.91,NNW,327,11.0,-999.0,96,-99.99,,,0.00,weatherlink.com 1.10,2013-10-18 08:20:00,
2013-10-18 04:35:00,44.7,44.0,29.92,WNW,297,20.0,-999.0,96,-99.99,,,0.00,weatherlink.com 1.10,2013-10-18 08:35:00,
2013-10-18 04:50:00,44.6,44.0,29.93,North,355,11.0,-999.0,96,-99.99,,,0.00,weatherlink.com 1.10,2013-10-18 08:50:00,
2013-10-18 05:05:00,44.5,43.0,29.93,NNE,17,7.0,-999.0,95,-99.99,,,0.00,weatherlink.com 1.10,2013-10-18 09:05:00,
2013-10-18 05:20:00,44.2,43.0,29.93,NNW,330,13.0,-999.0,95,-99.99,,,0.00,weatherlink.com 1.10,2013-10-18 09:20:00,
2013-10-18 05:35:00,44.0,43.0,29.93,NNE,25,8.0,-999.0,95,-99.99,,,0.00,weatherlink.com 1.10,2013-10-18 09:35:00,
2013-10-18 05:50:00,44.0,43.0,29.94,NW,311,15.0,-999.0,95,-99.99,,,0.00,weatherlink.com 1.10,2013-10-18 09:50:00,
2013-10-18 06:05:00,43.9,43.0,29.94,North,355,4.0,-999.0,95,-99.99,,,0.00,weatherlink.com 1.10,2013-10-18 10:05:00,
2013-10-18 06:20:00,43.7,42.0,29.94,NNW,347,6.0,-999.0,95,-99.99,,,0.00,weatherlink.com 1.10,2013-10-18 10:20:00,
2013-10-18 06:35:00,43.3,42.0,29.95,NNE,24,9.0,-999.0,95,-99.99,,,0.00,weatherlink.com 1.10,2013-10-18 10:35:00,
2013-10-18 06:50:00,43.1,42.0,29.96,North,9,11.0,-999.0,95,-99.99,,,0.00,weatherlink.com 1.10,2013-10-18 10:50:00,
2013-10-18 07:05:00,43.0,42.0,29.96,North,355,4.0,-999.0,95,-99.99,,,0.00,weatherlink.com 1.10,2013-10-18 11:05:00,
2013-10-18 07:20:00,43.1,42.0,29.97,NW,312,5.0,-999.0,95,-99.99,,,0.00,weatherlink.com 1.10,2013-10-18 11:20:00,
2013-10-18 07:35:00,42.9,42.0,29.98,North,360,7.0,-999.0,95,-99.99,,,0.00,weatherlink.com 1.10,2013-10-18 11:35:00,
2013-10-18 07:50:00,42.7,41.0,29.98,NW,315,4.0,-999.0,95,-99.99,,,0.00,weatherlink.com 1.10,2013-10-18 11:50:00,
2013-10-18 08:05:00,42.7,41.0,29.98,NW,326,8.0,-999.0,95,-99.99,,,0.00,weatherlink.com 1.10,2013-10-18 12:05:00,
2013-10-18 08:20:00,43.2,42.0,29.99,NNW,347,3.0,-999.0,94,-99.99,,,0.00,weatherlink.com 1.10,2013-10-18 12:20:00,
2013-10-18 08:35:00,43.6,42.0,30.00,NNW,327,4.0,-999.0,93,-99.99,,,0.00,weatherlink.com 1.10,2013-10-18 12:35:00,
2013-10-18 08:50:00,44.3,42.0,30.01,NW,309,5.0,-999.0,92,-99.99,,,0.00,weatherlink.com 1.10,2013-10-18 12:50:00,
2013-10-18 09:05:00,44.9,42.0,30.01,North,360,2.0,-999.0,90,-99.99,,,0.00,weatherlink.com 1.10,2013-10-18 13:05:00,
2013-10-18 09:20:00,45.8,43.0,30.02,North,360,2.0,-999.0,89,-99.99,,,0.00,weatherlink.com 1.10,2013-10-18 13:20:00,
2013-10-18 09:35:00,47.5,44.0,30.02,North,5,0.0,-999.0,86,-99.99,,,0.00,weatherlink.com 1.10,2013-10-18 13:35:00,
2013-10-18 09:50:00,48.2,43.0,30.03,NNW,346,1.0,-999.0,82,-99.99,,,0.00,weatherlink.com 1.10,2013-10-18 13:50:00,
2013-10-18 10:05:00,49.2,41.0,30.03,NNW,346,0.0,-999.0,74,-99.99,,,0.00,weatherlink.com 1.10,2013-10-18 14:05:00,
2013-10-18 10:20:00,50.9,44.0,30.04,NNW,346,0.0,-999.0,77,-99.99,,,0.00,weatherlink.com 1.10,2013-10-18 14:20:00,
2013-10-18 10:35:00,51.3,42.0,30.04,WNW,294,0.0,-999.0,70,-99.99,,,0.00,weatherlink.com 1.10,2013-10-18 14:35:00,
2013-10-18 10:50:00,52.0,41.0,30.05,SW,222,2.0,-999.0,66,-99.99,,,0.00,weatherlink.com 1.10,2013-10-18 14:50:00,
2013-10-18 11:05:00,52.6,42.0,30.05,SW,223,1.0,-999.0,67,-99.99,,,0.00,weatherlink.com 1.10,2013-10-18 15:05:00,
2013-10-18 11:20:00,52.9,41.0,30.04,SW,223,2.0,-999.0,65,-99.99,,,0.00,weatherlink.com 1.10,2013-10-18 15:20:00,
2013-10-18 11:35:00,53.5,44.0,30.04,SW,229,0.0,-999.0,70,-99.99,,,0.00,weatherlink.com 1.10,2013-10-18 15:35:00,
2013-10-18 11:50:00,53.7,44.0,30.04,WSW,237,3.0,-999.0,70,-99.99,,,0.00,weatherlink.com 1.10,2013-10-18 15:50:00,
2013-10-18 12:05:00,54.3,44.0,30.04,WSW,237,1.0,-999.0,68,-99.99,,,0.00,weatherlink.com 1.10,2013-10-18 16:05:00,
2013-10-18 12:20:00,54.6,45.0,30.04,West,274,1.0,-999.0,69,-99.99,,,0.00,weatherlink.com 1.10,2013-10-18 16:20:00,
2013-10-18 12:35:00,54.1,45.0,30.04,SW,232,1.0,-999.0,72,-99.99,,,0.00,weatherlink.com 1.10,2013-10-18 16:35:00,
2013-10-18 12:50:00,54.0,46.0,30.03,WSW,257,4.0,-999.0,74,-99.99,,,0.00,weatherlink.com 1.10,2013-10-18 16:50:00,
2013-10-18 13:05:00,54.9,47.0,30.02,WSW,238,6.0,-999.0,76,-99.99,,,0.00,weatherlink.com 1.10,2013-10-18 17:05:00,
2013-10-18 13:20:00,55.9,49.0,30.02,West,264,5.0,-999.0,77,-99.99,,,0.00,weatherlink.com 1.10,2013-10-18 17:20:00,
2013-10-18 13:35:00,55.7,49.0,30.01,West,260,2.0,-999.0,77,-99.99,,,0.00,weatherlink.com 1.10,2013-10-18 17:35:00,
2013-10-18 13:50:00,55.9,50.0,30.01,WNW,289,8.0,-999.0,79,-99.99,,,0.00,weatherlink.com 1.10,2013-10-18 17:50:00,
2013-10-18 14:05:00,56.3,50.0,30.00,SSW,207,4.0,-999.0,80,-99.99,,,0.00,weatherlink.com 1.10,2013-10-18 18:05:00,
2013-10-18 14:20:00,56.6,50.0,30.00,WSW,252,3.0,-999.0,78,-99.99,,,0.00,weatherlink.com 1.10,2013-10-18 18:20:00,
2013-10-18 14:35:00,57.2,50.0,30.00,WSW,245,3.0,-999.0,76,-99.99,,,0.00,weatherlink.com 1.10,2013-10-18 18:35:00,
2013-10-18 14:50:00,57.3,49.0,29.99,West,261,2.0,-999.0,75,-99.99,,,0.00,weatherlink.com 1.10,2013-10-18 18:50:00,
2013-10-18 15:05:00,57.3,51.0,29.99,WSW,246,5.0,-999.0,78,-99.99,,,0.00,weatherlink.com 1.10,2013-10-18 19:05:00,
2013-10-18 15:20:00,57.3,51.0,29.99,West,271,3.0,-999.0,78,-99.99,,,0.00,weatherlink.com 1.10,2013-10-18 19:20:00,
2013-10-18 15:35:00,58.6,51.0,29.99,West,279,5.0,-999.0,77,-99.99,,,0.00,weatherlink.com 1.10,2013-10-18 19:35:00,
2013-10-18 15:50:00,58.6,51.0,29.99,SW,217,7.0,-999.0,77,-99.99,,,0.00,weatherlink.com 1.10,2013-10-18 19:50:00,
2013-10-18 16:05:00,56.9,51.0,29.99,SSW,192,8.0,-999.0,80,-99.99,,,0.00,weatherlink.com 1.10,2013-10-18 20:05:00,
2013-10-18 16:20:00,57.2,51.0,29.99,SW,225,1.0,-999.0,81,-99.99,,,0.00,weatherlink.com 1.10,2013-10-18 20:20:00,
2013-10-18 16:35:00,57.8,52.0,29.99,WSW,244,0.0,-999.0,81,-99.99,,,0.00,weatherlink.com 1.10,2013-10-18 20:35:00,
2013-10-18 16:50:00,56.6,51.0,29.99,WSW,240,2.0,-999.0,82,-99.99,,,0.00,weatherlink.com 1.10,2013-10-18 20:50:00,
2013-10-18 17:05:00,56.3,51.0,29.99,SW,234,0.0,-999.0,82,-99.99,,,0.00,weatherlink.com 1.10,2013-10-18 21:05:00,
2013-10-18 17:20:00,55.5,50.0,29.99,SW,234,5.0,-999.0,82,-99.99,,,0.00,weatherlink.com 1.10,2013-10-18 21:20:00,
2013-10-18 17:35:00,54.8,50.0,29.99,SW,236,2.0,-999.0,85,-99.99,,,0.00,weatherlink.com 1.10,2013-10-18 21:35:00,
2013-10-18 17:50:00,54.6,51.0,29.99,SW,236,1.0,-999.0,86,-99.99,,,0.00,weatherlink.com 1.10,2013-10-18 21:50:00,
2013-10-18 18:05:00,54.5,51.0,29.99,SW,236,0.0,-999.0,87,-99.99,,,0.00,weatherlink.com 1.10,2013-10-18 22:05:00,
2013-10-18 18:20:00,54.3,51.0,29.99,SW,236,4.0,-999.0,88,-99.99,,,0.00,weatherlink.com 1.10,2013-10-18 22:20:00,
2013-10-18 18:35:00,53.5,51.0,30.00,SW,236,4.0,-999.0,91,-99.99,,,0.00,weatherlink.com 1.10,2013-10-18 22:35:00,
2013-10-18 18:50:00,52.8,51.0,30.00,SW,236,3.0,-999.0,93,-99.99,,,0.00,weatherlink.com 1.10,2013-10-18 22:50:00,
2013-10-18 19:05:00,52.4,51.0,30.00,SW,236,1.0,-999.0,94,-99.99,,,0.00,weatherlink.com 1.10,2013-10-18 23:05:00,
2013-10-18 19:20:00,52.4,51.0,30.00,SW,236,2.0,-999.0,95,-99.99,,,0.00,weatherlink.com 1.10,2013-10-18 23:20:00,
2013-10-18 19:35:00,52.2,51.0,30.00,WSW,237,0.0,-999.0,96,-99.99,,,0.00,weatherlink.com 1.10,2013-10-18 23:35:00,
2013-10-18 19:50:00,52.0,51.0,30.00,WSW,237,1.0,-999.0,96,-99.99,,,0.00,weatherlink.com 1.10,2013-10-18 23:50:00,
2013-10-18 20:05:00,51.8,51.0,30.01,WSW,237,0.0,-999.0,96,-99.99,,,0.00,weatherlink.com 1.10,2013-10-19 00:05:00,
2013-10-18 20:21:00,51.8,51.0,30.01,WSW,237,0.0,-999.0,96,-99.99,,,0.00,weatherlink.com 1.10,2013-10-19 00:21:00,
2013-10-18 20:35:00,51.7,51.0,30.01,WSW,237,0.0,-999.0,96,-99.99,,,0.00,weatherlink.com 1.10,2013-10-19 00:35:00,
2013-10-18 20:50:00,51.5,51.0,30.01,SE,128,4.0,-999.0,97,-99.99,,,0.00,weatherlink.com 1.10,2013-10-19 00:50:00,
2013-10-18 21:05:00,51.3,51.0,30.00,SE,138,2.0,-999.0,97,-99.99,,,0.00,weatherlink.com 1.10,2013-10-19 01:05:00,
2013-10-18 21:20:00,51.3,51.0,30.01,SE,145,0.0,-999.0,97,-99.99,,,0.00,weatherlink.com 1.10,2013-10-19 01:20:00,
2013-10-18 21:35:00,51.1,50.0,30.01,SSE,164,5.0,-999.0,97,-99.99,,,0.00,weatherlink.com 1.10,2013-10-19 01:35:00,
2013-10-18 21:51:00,51.0,50.0,30.02,SSW,205,1.0,-999.0,97,-99.99,,,0.00,weatherlink.com 1.10,2013-10-19 01:51:00,
2013-10-18 22:06:00,51.1,50.0,30.02,SSW,206,0.0,-999.0,97,-99.99,,,0.00,weatherlink.com 1.10,2013-10-19 02:06:00,
2013-10-18 22:20:00,51.1,50.0,30.02,SSW,206,2.0,-999.0,97,-99.99,,,0.00,weatherlink.com 1.10,2013-10-19 02:20:00,
2013-10-18 22:35:00,50.9,50.0,30.01,SSW,207,2.0,-999.0,97,-99.99,,,0.00,weatherlink.com 1.10,2013-10-19 02:35:00,
2013-10-18 22:50:00,50.6,50.0,30.02,South,182,2.0,-999.0,97,-99.99,,,0.00,weatherlink.com 1.10,2013-10-19 02:50:00,
2013-10-18 23:05:00,50.5,50.0,30.01,SE,139,0.0,-999.0,97,-99.99,,,0.00,weatherlink.com 1.10,2013-10-19 03:05:00,
2013-10-18 23:20:00,50.4,50.0,30.02,SSE,152,1.0,-999.0,98,-99.99,,,0.00,weatherlink.com 1.10,2013-10-19 03:20:00,
2013-10-18 23:35:00,50.5,50.0,30.01,SW,219,0.0,-999.0,98,-99.99,,,0.00,weatherlink.com 1.10,2013-10-19 03:35:00,
2013-10-18 23:50:00,50.8,50.0,30.01,SW,219,3.0,-999.0,98,-99.99,,,0.00,weatherlink.com 1.10,2013-10-19 03:50:00,